RH
16 15 15 15 15 17 18 21 22 22 21 21 21 23 24 28 31 34 35 33 30 27 27 26 26 28 32 33 29 24 23 24 25 24 22 23 24 25 26 26 26 27 28 31 33 33 33 33 34 34 35 36 36 36 36 36 36 35 35 35 35 34 34 35 35 35 34 33 31 31 33 33 35 37 38 39 39 39 37 38 40 41 40 40 40 39 39 40 40 39 38 39 40 41 41 41 39 37 36 36 36 37 38
17 16 16 16 17 18 20 21 21 20 19 20 20 21 23 26 30 32 34 34 30 26 25 25 24 26 30 32 28 24 22 24 26 26 22 22 23 24 26 26 26 27 28 30 31 32 32 32 32 33 35 35 36 36 36 36 35 35 34 34 33 33 32 33 33 33 32 30 30 32 35 35 37 39 39 39 40 39 35 37 39 41 41 41 41 40 39 41 42 41 41 40 40 40 42 42 42 40 38 37 37 37 37
17 17 17 17 18 19 21 22 22 21 21 21 22 23 24 25 28 31 34 34 30 26 24 25 24 23 25 25 24 23 22 23 25 25 22 23 23 24 25 26 26 27 28 29 31 32 33 33 33 33 35 36 36 36 36 35 35 34 33 32 31 30 30 32 32 31 28 26 28 32 38 38 38 39 39 40 40 38 33 35 38 41 42 42 42 40 37 40 42 42 42 42 41 40 39 39 41 42 41 39 39 39 38
18 18 18 18 18 19 20 21 21 21 21 22 23 24 25 26 27 28 30 30 27 24 25 26 25 23 24 24 24 24 24 25 25 25 25 25 25 25 26 26 27 28 28 29 31 32 34 34 34 34 34 36 36 36 36 35 34 33 31 30 29 29 29 31 30 27 22 22 25 30 34 36 37 38 36 37 36 34 33 34 37 39 39 39 38 37 38 37 38 40 41 41 40 39 37 35 36 39 40 39 39 39 39
18 18 18 18 19 20 20 21 21 21 21 22 23 24 25 26 26 25 24 24 24 24 24 24 25 25 26 26 26 27 27 27 28 28 28 28 27 27 27 27 28 28 29 30 30 31 33 34 35 35 35 35 36 36 35 34 33 31 30 29 28 28 29 29 26 22 18 20 22 25 29 31 33 35 36 35 34 33 33 35 36 36 35 35 37 39 41 37 36 38 40 40 39 38 37 33 32 34 37 37 37 37 36
19 19 19 20 20 21 21 22 22 22 22 22 22 23 24 26 26 24 23 24 24 25 25 26 27 27 27 28 28 28 28 28 28 28 28 28 28 28 28 28 28 28 29 29 30 31 32 34 35 35 35 36 36 35 34 33 31 30 28 27 27 27 28 25 21 18 17 18 20 23 27 28 31 34 34 32 32 33 35 36 36 35 36 38 40 41 41 37 36 36 38 38 38 38 36 34 31 31 33 35 36 36 33
20 21 21 21 21 21 22 22 23 23 22 22 22 22 23 25 25 24 23 24 25 26 27 28 28 28 28 28 28 28 28 28 28 28 27 27 27 27 27 28 28 29 29 29 30 32 33 34 34 35 35 35 35 34 33 32 29 28 26 26 26 26 24 21 18 17 16 17 18 20 23 26 28 30 31 30 31 33 37 37 36 36 39 41 41 41 40 37 35 33 34 35 36 37 37 36 34 33 33 34 35 34 31
22 22 23 23 22 22 22 23 23 23 23 23 22 22 23 24 24 24 24 25 26 27 28 28 29 28 28 28 27 27 27 27 27 27 27 26 27 27 27 28 28 29 29 30 32 33 33 34 34 34 33 33 33 33 31 28 26 24 24 24 24 22 20 18 18 18 18 17 18 19 21 24 26 27 29 30 32 34 39 38 35 33 36 37 39 40 39 37 36 35 34 33 34 35 37 36 36 35 36 37 37 36 34
24 24 24 24 24 24 24 24 24 23 23 23 23 23 23 24 25 26 26 27 28 29 30 29 29 28 28 27 27 27 27 27 26 26 26 26 26 26 27 27 28 29 30 31 32 33 34 34 33 33 32 31 30 29 27 25 23 22 23 22 22 20 19 19 20 20 19 19 19 19 21 23 25 28 29 31 33 35 39 38 36 33 32 32 34 35 36 35 36 36 36 36 36 36 36 35 35 35 36 37 37 38 38
24 25 25 26 26 26 26 25 25 25 24 24 23 23 24 25 26 27 28 29 30 30 31 30 29 28 27 27 27 27 27 26 26 26 26 26 26 26 27 27 28 28 30 31 31 32 32 31 30 29 28 26 26 25 25 24 23 23 23 22 22 21 21 21 22 21 21 21 21 21 22 23 26 28 31 33 35 37 38 36 34 33 32 31 31 31 32 33 35 36 37 37 37 36 36 36 36 36 36 36 37 38 39
25 25 26 26 27 28 27 27 26 26 25 25 25 24 25 26 27 28 30 31 31 32 31 30 29 28 28 27 27 27 27 26 26 26 26 27 27 27 27 27 28 28 29 29 29 29 28 28 27 27 26 26 26 25 25 25 24 24 24 23 23 23 23 23 23 23 23 23 24 25 26 27 29 31 32 35 36 37 37 35 34 32 31 30 29 29 30 31 33 35 36 36 36 36 36 36 36 36 35 36 37 38 38
26 26 26 27 28 29 29 29 28 28 27 27 26 26 26 27 28 29 31 32 32 33 32 31 30 29 28 28 28 27 27 27 27 27 27 27 27 27 28 28 28 28 28 28 28 28 28 27 27 27 27 27 27 27 26 26 25 25 25 24 24 24 24 24 24 23 23 24 26 28 31 32 33 33 34 35 36 36 36 34 33 31 30 29 28 28 29 29 30 31 33 33 33 34 36 35 35 34 32 32 33 34 35
26 26 27 27 28 29 30 30 30 30 29 29 28 28 28 28 29 30 32 33 33 34 33 32 31 30 29 29 29 28 28 27 27 28 28 28 28 28 28 28 28 29 29 29 29 28 28 28 28 28 27 27 27 27 27 26 26 26 25 25 25 24 24 24 24 24 24 25 28 32 34 34 34 34 34 34 34 35 35 33 32 30 30 29 29 29 29 29 29 30 31 30 30 31 32 31 30 29 28 28 28 29 29
27 27 27 28 29 30 30 31 31 31 31 31 30 30 30 30 31 32 33 34 34 34 34 32 31 31 30 30 30 29 29 28 28 28 28 29 29 29 29 29 29 29 30 29 29 29 29 28 28 28 27 27 27 27 27 26 26 26 26 25 25 24 24 24 23 24 25 27 31 34 35 35 34 34 33 33 34 34 33 32 32 32 32 32 32 33 32 32 32 32 31 30 29 29 29 28 27 26 25 25 25 25 25
28 28 28 28 29 30 31 31 32 32 33 33 32 32 32 33 34 34 35 35 35 35 34 33 32 32 31 31 31 31 31 30 30 29 29 30 30 30 30 30 30 30 30 30 30 30 29 29 28 28 27 27 27 27 27 26 26 25 25 25 25 24 23 23 23 24 27 31 34 35 36 35 35 34 33 33 34 34 34 33 34 34 34 34 34 34 34 33 33 32 32 31 31 30 30 29 27 25 24 24 23 23 23
29 29 29 29 29 30 31 32 32 33 34 34 34 34 35 35 36 36 37 37 37 37 35 34 33 32 31 32 32 33 32 32 31 31 31 31 31 31 31 31 31 31 31 31 30 30 30 29 29 28 28 27 27 27 27 26 26 25 25 25 25 24 24 23 24 27 31 34 36 37 38 38 37 36 37 37 37 37 36 36 36 36 36 35 35 35 35 34 33 33 32 31 30 30 29 27 25 24 23 23 23 23 23
29 30 30 30 29 30 30 32 32 33 34 35 36 37 37 38 38 39 39 39 39 38 37 35 34 32 32 32 32 33 32 32 32 32 32 32 32 32 32 32 32 32 31 31 31 31 30 30 29 29 28 28 28 27 27 26 26 25 25 25 25 25 24 25 27 31 35 36 37 38 39 39 39 40 40 40 40 40 38 38 38 38 38 35 34 33 33 32 31 30 29 28 27 26 25 24 23 22 22 23 23 23 23
30 31 31 31 30 30 31 32 32 33 34 36 37 38 39 40 41 41 41 41 41 40 39 37 35 33 32 32 32 32 32 32 32 32 33 33 33 33 33 33 32 32 32 31 31 31 31 30 30 29 29 29 28 28 28 27 26 26 26 26 26 26 25 28 31 35 37 37 38 39 40 40 40 41 41 41 41 40 38 38 37 36 36 34 33 32 31 30 29 27 26 25 24 23 23 23 23 23 24 24 24 23 23
32 32 33 32 31 31 31 32 33 34 35 36 37 39 41 42 42 43 43 43 43 43 41 38 36 34 33 33 33 32 32 32 33 33 33 33 33 33 33 33 33 32 32 32 31 31 31 30 30 30 30 30 29 29 28 28 28 28 28 27 27 26 26 32 35 38 38 38 38 39 39 39 40 39 39 39 39 38 37 37 36 35 35 34 33 32 30 28 26 25 25 24 24 24 25 25 25 25 25 26 25 23 23
33 34 35 33 32 32 32 33 33 34 35 37 38 40 42 43 44 44 44 44 45 45 43 39 36 34 33 33 33 33 33 33 33 33 33 33 33 33 33 33 32 32 32 31 31 30 30 31 31 31 31 31 30 30 29 29 29 29 29 28 28 27 28 34 37 38 39 39 39 39 38 38 38 37 38 37 37 36 36 36 36 35 35 34 32 30 28 27 26 25 26 25 25 26 26 26 26 26 25 25 24 22 21
35 36 36 35 34 34 34 34 34 35 36 38 39 41 43 44 44 45 45 45 47 47 45 41 37 35 33 33 33 33 33 33 33 33 33 33 33 33 32 32 32 31 31 31 30 30 30 31 31 31 32 31 31 31 30 30 30 30 30 29 28 28 30 35 38 38 38 39 39 39 38 37 36 36 35 35 36 36 36 36 36 35 35 32 30 29 27 27 27 27 28 27 26 26 26 26 25 25 25 24 23 23 21
37 37 37 36 36 36 37 37 37 37 37 39 39 41 42 44 44 45 45 46 47 48 46 42 39 36 34 33 33 32 32 32 32 32 32 32 32 32 32 31 31 30 30 30 30 30 31 31 32 32 32 32 32 31 31 31 31 31 30 29 29 29 31 36 38 38 38 38 38 38 38 36 35 35 34 35 36 36 37 36 36 35 34 31 29 27 27 28 29 29 29 28 27 26 26 26 26 25 25 24 24 24 22
38 38 39 39 39 40 40 41 41 40 40 40 39 39 40 41 42 43 44 46 47 47 45 42 40 38 37 35 35 34 33 33 32 32 32 32 32 32 31 31 31 31 30 31 31 31 31 32 32 33 33 33 33 32 31 31 31 31 30 30 29 30 31 35 37 37 37 37 37 38 37 36 35 35 34 35 36 36 36 36 36 34 32 29 28 27 28 30 30 30 30 29 28 27 27 27 27 27 26 26 25 25 24
38 39 40 40 41 43 44 45 44 43 43 41 40 38 37 38 39 40 42 44 45 44 42 41 40 39 38 37 37 36 35 34 34 33 33 33 33 33 32 32 32 32 31 31 32 32 32 32 33 34 34 34 33 32 32 32 31 31 30 30 29 29 30 33 35 36 36 36 37 37 37 37 36 35 35 35 35 35 36 36 35 33 30 27 26 27 29 30 31 31 31 29 28 28 28 28 28 28 27 27 26 26 26
40 40 41 42 44 45 47 47 46 45 44 43 41 39 37 36 37 38 39 41 40 39 36 35 35 35 35 35 35 34 33 33 33 33 33 34 34 34 34 34 34 33 33 33 33 33 33 33 34 34 35 34 34 33 32 32 32 31 30 29 28 28 28 29 31 32 34 34 35 36 36 36 36 35 35 35 35 34 34 34 33 31 28 26 26 26 28 30 31 32 30 29 29 28 28 28 28 28 27 26 26 26 25
42 42 42 43 45 46 48 49 49 47 46 44 42 40 38 37 37 38 39 39 37 34 31 31 31 31 31 30 30 29 29 29 29 30 30 31 32 33 34 35 35 35 35 35 35 34 34 34 34 35 35 35 34 33 33 32 32 31 30 29 28 27 27 27 27 28 29 30 31 32 34 35 35 35 35 34 34 33 33 32 31 29 26 25 25 26 27 29 30 30 29 28 28 27 27 27 26 26 25 25 25 24 24
45 44 43 44 44 46 48 51 52 51 50 47 43 41 39 39 39 39 40 38 34 31 30 30 29 29 29 28 27 27 26 26 26 27 27 28 29 30 32 33 35 36 36 36 36 36 36 35 35 35 35 35 34 33 33 32 32 31 30 29 28 27 26 25 25 25 24 26 26 28 30 32 32 32 32 32 32 31 31 29 27 25 23 24 24 25 26 27 28 28 28 27 26 26 25 25 24 24 24 23 23 23 23
48 45 44 44 44 45 47 51 53 54 53 49 45 42 41 40 40 40 40 35 32 30 30 30 30 29 28 27 26 26 26 26 25 26 26 26 27 28 29 31 33 34 36 37 37 37 37 37 36 36 35 35 34 33 32 32 31 31 30 29 27 27 26 25 24 24 23 23 24 25 27 28 29 29 28 29 29 29 28 26 23 21 20 22 23 24 25 26 26 26 26 26 25 25 24 24 24 23 23 22 22 22 22
49 46 45 45 46 47 48 49 51 52 53 50 47 44 41 41 41 40 36 33 32 32 31 30 29 28 27 27 26 26 25 25 25 25 26 26 26 27 28 29 31 33 34 36 37 38 38 38 37 37 36 35 34 33 32 32 31 30 29 28 27 26 25 25 24 23 23 23 24 25 26 27 28 28 27 27 28 27 26 24 22 20 20 21 22 24 25 25 26 26 26 26 25 25 24 24 23 23 22 22 21 21 21
47 46 45 47 48 48 49 49 49 50 50 49 46 44 42 42 40 37 34 33 33 32 31 30 29 28 27 27 26 26 25 25 25 26 26 26 27 28 28 29 31 32 33 35 37 38 39 39 38 37 36 35 34 33 32 31 31 30 29 28 27 26 25 24 24 23 22 22 23 24 26 27 28 28 28 28 27 27 25 23 21 19 20 21 22 24 25 25 26 26 26 25 25 25 24 23 23 22 22 21 21 20 20
46 46 46 47 48 48 48 48 48 47 48 46 45 44 43 41 38 36 35 34 33 31 30 29 29 28 28 27 26 25 25 25 25 26 26 27 27 28 29 30 31 32 33 34 36 37 38 39 39 38 36 35 34 33 32 31 30 30 29 28 27 26 25 24 24 22 21 22 22 24 26 27 27 28 27 27 26 25 23 21 20 19 19 21 22 23 25 25 25 25 25 25 24 24 23 22 22 21 20 20 19 18 18
45 45 45 46 47 47 47 47 46 46 45 44 43 43 42 39 37 36 35 33 32 31 30 30 29 29 28 27 26 25 25 25 25 26 27 28 28 29 31 32 33 33 34 35 36 37 38 38 38 38 36 35 34 33 32 31 30 29 29 27 27 26 25 25 23 22 21 20 21 23 25 26 27 27 27 26 24 23 21 19 19 19 20 21 22 23 24 25 25 25 24 24 23 23 22 21 20 20 19 18 18 17 16
44 44 44 45 46 46 46 46 45 45 44 43 42 42 39 37 36 35 34 33 32 31 31 31 30 29 28 27 26 25 25 25 25 27 28 29 30 31 32 33 34 34 35 35 35 36 37 37 38 37 36 34 33 32 32 31 30 29 28 28 27 26 26 25 23 21 19 19 20 21 23 25 25 25 25 24 22 21 20 19 19 19 20 21 22 23 24 24 24 24 24 23 23 22 21 21 20 20 19 18 18 17 16
44 44 44 44 44 44 44 44 44 44 42 42 41 39 37 36 35 34 33 32 32 31 31 31 30 30 28 27 26 25 25 25 26 27 29 30 31 33 34 34 35 35 35 36 36 35 36 36 36 36 35 34 33 32 32 31 30 29 28 28 27 27 26 25 24 21 19 18 18 19 21 22 23 23 23 22 21 20 20 19 20 20 21 22 23 23 23 24 24 24 23 23 22 22 22 21 21 21 20 19 19 18 17
43 43 43 43 42 42 43 43 43 42 42 41 39 37 35 35 34 33 32 32 32 32 32 31 31 30 29 27 26 25 25 25 26 28 30 31 33 34 35 36 36 36 36 36 35 35 35 35 35 34 34 33 32 32 31 31 30 29 28 28 27 27 27 26 24 22 19 18 18 18 19 20 21 21 21 20 20 20 20 20 21 21 22 22 23 23 23 24 24 23 23 23 23 22 22 22 22 21 21 20 20 19 18
42 42 42 42 42 42 42 42 41 41 41 39 37 35 34 34 33 32 32 33 32 32 32 31 31 30 29 27 26 25 25 26 27 28 30 33 34 35 36 36 37 36 36 35 35 34 34 33 33 33 33 32 32 31 31 30 30 29 28 28 28 28 28 27 25 23 21 19 18 18 18 18 19 19 20 20 20 21 21 21 22 22 23 23 23 24 24 24 24 24 23 23 23 23 22 22 22 22 21 21 20 20 19
43 42 43 43 43 43 42 41 40 40 40 38 35 34 33 32 32 32 33 33 32 32 32 31 31 30 29 27 26 25 25 26 27 29 31 33 35 36 37 37 37 36 36 35 34 33 32 32 32 32 32 32 31 31 31 30 29 29 28 28 29 28 28 28 27 25 23 21 20 19 18 18 19 19 19 20 20 21 22 22 23 23 24 24 24 24 24 24 24 24 24 23 23 23 23 23 22 22 22 22 21 20 19
44 44 45 45 44 43 42 41 41 40 39 36 34 33 32 32 32 32 33 33 32 32 32 32 31 31 30 28 27 26 26 27 28 30 32 34 36 37 38 37 37 37 36 35 34 33 32 32 31 31 31 32 32 31 30 30 29 29 28 29 29 29 29 29 29 28 26 25 23 22 20 20 19 20 20 21 21 22 23 23 24 24 24 24 24 25 24 24 24 24 24 23 23 23 23 23 23 22 22 22 21 21 20
45 44 45 44 44 43 41 41 42 41 38 35 34 33 33 33 33 33 33 32 32 33 32 32 32 31 30 29 28 27 27 28 29 31 33 35 37 38 38 38 38 37 36 35 34 33 32 32 32 32 32 32 32 31 30 29 28 28 29 29 29 30 30 30 30 29 28 27 26 25 23 22 22 22 22 22 23 23 24 24 25 25 25 25 25 25 25 24 25 24 24 24 23 23 23 23 23 22 22 22 21 21 20
44 43 43 43 42 42 42 42 42 41 37 35 34 34 33 33 33 33 33 32 33 33 33 33 33 32 31 30 29 28 28 28 30 32 34 36 37 38 39 38 38 37 36 35 34 33 33 33 33 33 33 33 33 32 30 29 29 28 28 29 29 30 30 30 30 30 30 30 29 28 26 25 25 25 25 25 25 25 25 25 26 26 26 26 25 25 25 25 25 25 24 24 24 23 23 23 23 23 22 22 21 21 20
45 44 44 44 43 43 43 43 41 39 35 35 34 34 33 33 33 33 33 33 33 33 34 34 34 33 32 31 30 29 28 29 30 32 33 36 37 38 39 39 38 37 36 35 35 34 33 33 33 33 33 34 33 32 31 30 29 29 29 29 29 30 30 31 31 31 31 31 31 30 30 29 28 27 27 27 27 27 27 27 27 27 26 26 26 26 26 26 25 25 25 24 24 23 23 23 23 22 22 22 21 20 20
46 46 47 46 45 45 44 44 41 38 36 35 34 34 33 33 33 33 33 34 34 34 34 35 34 34 33 32 31 30 29 29 30 31 33 35 36 38 39 39 38 38 37 36 36 35 34 34 33 33 33 33 33 32 32 31 30 30 30 30 30 30 31 31 31 31 31 31 32 32 32 32 32 31 30 29 28 28 28 28 27 27 27 27 27 26 26 26 26 25 25 24 24 24 23 23 23 22 22 21 21 21 20
49 49 49 49 47 46 46 44 41 38 37 35 35 34 34 34 34 34 34 35 35 35 35 36 35 35 33 33 31 30 29 29 29 30 32 34 35 37 38 39 39 39 38 38 37 37 37 36 35 34 33 33 33 33 32 32 32 32 32 32 32 32 32 32 32 31 32 32 32 32 33 34 35 35 34 33 31 30 29 29 28 28 28 27 27 27 26 26 26 25 25 24 24 23 23 23 22 22 22 21 21 20 20
51 51 51 51 49 48 47 44 41 39 38 36 36 35 35 35 35 36 36 36 36 37 37 36 36 35 34 33 32 30 29 29 29 30 31 32 34 35 37 38 39 40 40 40 40 40 39 39 38 37 36 35 35 34 34 33 33 33 33 33 34 34 34 33 33 33 32 32 32 32 32 33 34 36 37 37 36 35 33 32 31 30 29 28 27 27 26 26 25 25 24 24 23 23 23 23 22 22 22 21 21 20 20
52 53 53 52 51 50 49 45 42 40 39 37 37 36 36 36 36 37 37 38 38 38 38 37 36 36 35 34 32 31 30 29 29 30 30 31 32 34 36 38 40 41 42 42 42 42 42 42 41 40 40 39 38 37 36 36 35 35 35 35 35 35 36 36 35 35 34 33 32 32 31 31 32 33 35 36 36 36 36 35 33 32 31 29 28 27 26 26 25 24 24 24 23 23 23 23 22 22 22 21 21 21 20
54 54 54 53 52 51 50 46 42 41 40 39 38 37 37 37 37 38 38 39 39 39 38 37 36 36 36 34 32 31 30 30 30 30 30 30 31 33 35 37 40 41 43 43 43 43 43 43 43 42 42 41 41 40 40 39 39 38 38 37 37 37 37 37 37 37 37 36 35 34 33 32 31 31 31 32 33 33 33 33 33 32 30 29 28 27 26 25 25 25 24 24 23 23 23 23 22 22 22 22 21 21 20
56 56 55 54 54 52 51 46 43 41 41 40 39 39 38 38 38 39 39 40 40 40 39 38 37 36 36 34 33 31 31 31 31 31 30 30 31 32 34 36 38 41 42 43 43 44 44 44 44 43 43 42 43 42 42 42 42 41 40 39 38 38 38 38 39 39 39 39 38 37 36 35 34 33 32 32 31 31 31 31 31 30 30 29 28 28 27 26 26 25 25 24 24 24 24 23 23 23 22 22 22 21 20
57 57 56 55 55 54 52 47 44 43 42 41 40 40 39 39 39 40 42 42 42 41 39 38 38 37 36 34 32 32 31 31 32 32 32 32 32 33 34 35 37 39 41 42 43 44 44 44 44 44 43 43 43 44 44 44 44 43 42 40 39 38 38 38 38 39 40 40 41 40 39 38 36 35 34 33 33 32 31 31 31 30 30 30 29 29 28 27 27 26 26 25 25 24 24 23 23 22 22 22 21 21 20
57 57 57 56 55 55 52 47 44 43 43 42 41 40 40 40 41 43 45 45 44 43 40 39 39 38 36 34 33 32 32 32 32 32 33 33 33 34 34 35 36 38 39 41 42 43 44 44 44 44 44 44 44 44 45 45 44 43 42 41 40 39 38 37 37 37 37 38 39 39 39 37 36 35 34 33 32 32 31 31 31 30 30 30 29 29 28 28 27 26 25 25 24 24 23 23 22 22 21 21 21 20 19
55 55 56 56 56 55 52 47 45 43 43 42 42 41 41 42 44 46 48 49 48 45 42 40 39 38 37 35 34 33 33 33 33 34 35 35 34 34 34 34 35 37 38 40 41 42 44 44 44 44 44 44 44 44 44 44 43 42 41 40 39 38 37 37 36 36 35 35 35 35 35 35 34 33 33 32 31 31 30 30 30 29 29 29 28 28 27 27 26 25 25 24 24 23 23 22 22 21 21 20 20 19 18
52 52 53 54 54 53 51 47 44 43 44 44 43 42 42 43 46 49 53 54 52 49 44 42 40 39 37 36 35 35 35 35 35 37 37 37 35 34 34 34 34 36 37 39 40 42 43 43 44 44 43 43 43 42 42 42 41 40 40 39 38 37 37 36 36 35 35 34 34 33 33 33 32 32 31 31 30 29 29 29 28 28 28 28 27 27 26 25 25 24 24 23 23 23 22 22 21 21 20 19 19 18 18
48 49 50 51 51 51 50 47 45 45 46 46 44 43 42 43 47 52 56 56 54 51 46 44 41 39 37 36 36 36 36 37 38 39 39 37 36 35 34 34 34 34 36 37 39 41 42 43 43 43 43 42 42 41 41 40 39 39 38 38 37 37 36 36 36 35 34 34 33 33 32 31 31 30 30 29 29 28 28 28 28 27 27 27 26 26 25 24 24 23 23 23 22 22 22 21 20 20 19 18 18 18 17
46 47 47 47 48 48 48 47 47 47 48 47 45 44 43 45 49 55 57 57 55 52 47 44 42 39 37 37 37 37 38 39 39 40 39 37 36 35 34 34 34 35 36 37 39 41 42 42 43 43 42 42 41 41 40 40 39 38 38 37 37 37 36 36 35 35 34 33 33 32 32 31 30 30 29 28 28 28 27 27 27 26 26 25 25 24 24 23 23 22 22 22 21 21 21 20 19 19 18 18 17 17 17
46 46 45 45 45 46 47 48 48 49 48 47 45 45 45 49 54 58 58 57 55 51 47 44 42 40 39 38 38 39 40 40 40 40 39 37 36 36 36 36 37 38 39 40 41 42 43 43 43 42 42 41 41 41 40 40 39 38 38 37 37 36 36 36 35 34 33 33 32 31 31 30 29 29 28 28 27 27 27 26 26 25 25 24 24 23 23 22 22 22 21 21 21 20 20 19 19 18 18 17 17 17 17
46 45 44 43 44 45 47 48 48 47 46 47 47 49 52 57 59 59 58 56 53 50 47 45 43 41 40 40 40 40 41 41 41 40 39 38 38 38 39 39 40 41 42 42 43 43 44 43 43 43 42 41 40 40 39 38 38 37 36 36 36 35 35 35 34 33 32 31 31 30 30 29 29 28 28 27 27 26 26 26 25 25 24 24 23 23 22 22 22 21 21 20 20 19 19 19 18 18 17 17 17 17 17
46 45 44 44 44 45 47 47 45 43 44 47 51 56 61 62 60 57 53 51 50 49 48 46 44 42 41 41 41 41 42 42 42 41 40 39 39 40 41 42 43 43 43 44 44 44 44 43 43 42 41 41 40 39 38 37 36 35 34 34 34 34 34 33 32 31 30 29 29 28 28 28 27 27 27 27 26 26 26 25 25 24 24 23 23 23 22 22 21 21 20 20 19 19 19 19 19 18 18 18 18 18 18
47 46 45 45 45 45 45 43 41 41 43 49 57 63 65 63 60 55 50 49 49 49 48 46 45 43 43 42 42 42 43 43 43 42 42 41 41 42 42 43 45 46 47 46 46 45 45 44 43 42 41 40 39 37 36 35 34 33 33 33 33 32 32 31 30 28 28 27 26 26 26 26 26 26 26 26 26 25 25 25 24 24 23 23 23 22 22 22 21 21 21 20 20 20 20 20 20 20 20 20 20 20 21
48 47 46 46 44 43 41 40 39 41 45 53 61 66 67 65 61 55 50 50 49 49 48 46 45 44 43 42 42 43 44 45 45 44 43 43 43 43 44 45 45 46 46 46 46 46 45 43 42 41 39 39 37 36 35 34 33 32 32 31 31 30 30 28 27 26 26 25 24 24 24 24 24 24 25 25 25 24 24 24 24 23 23 23 22 22 22 22 22 22 22 22 22 21 22 22 22 22 22 23 23 23 23
49 48 48 45 42 40 38 37 39 42 48 56 62 67 68 66 61 56 52 51 50 49 47 45 44 43 42 42 42 43 44 45 46 46 45 44 44 45 45 45 45 45 45 44 44 44 43 42 41 39 38 37 36 36 35 34 33 32 31 31 30 29 28 27 26 25 24 24 23 23 23 23 23 23 24 23 23 23 23 23 23 23 22 22 22 22 22 22 22 23 23 23 23 24 24 24 24 25 25 25 25 25 26
49 49 48 44 40 37 36 37 40 44 51 58 63 67 69 66 62 57 54 53 51 49 47 45 43 43 42 41 42 43 45 46 47 47 46 46 45 45 45 45 44 44 44 43 43 42 41 40 39 38 36 36 36 35 35 34 34 33 32 31 30 29 28 27 26 25 24 24 23 23 23 23 23 23 23 23 23 23 23 22 22 22 22 22 22 22 22 23 24 24 25 25 25 26 26 27 27 27 27 27 28 28 28
50 49 47 42 39 37 37 38 41 46 53 59 64 67 69 66 62 58 55 54 52 49 47 45 44 43 42 42 43 44 46 47 47 47 47 47 47 46 45 45 44 43 43 42 41 40 39 38 37 36 36 36 35 35 35 35 35 34 33 32 31 30 29 28 26 25 24 24 23 23 23 23 23 23 23 23 23 22 22 22 22 22 22 22 22 23 23 24 25 25 26 27 27 28 28 29 29 29 29 30 29 29 29